NIEUW!!! Volg onze weer- en natuurfoto's op Instagram @ weerstationmaaseik.be

WS Maaseik 1 Meer informatie WS Maaseik 1


WS Maaseik 2 Meer informatie WS Maaseik 2


Regen radar Meer informatie rain snow radar


Bezoek onze andere website:

Vorige versie
weerstation Maaseik


Bezoek ook eens deze sites:

Weerstation Geleen



Wind van: 20-02-2020 19:00 tot: 22:59 waarschuwing voor: Wind niveau: Geel info button

15 daagse weersverwachting Naas, Maynooth (IE)

  • Overzicht
  • Per uur
  • 15 dagen
  • Extra
  • Vergelijk
  • Kaarten
  • Dagkaart
  • Meer »
  • Info
  • Statistieken
  • Directe link
    Temp 6h Neerslag Wind  
 07:35     17:46    Daglengte: 10:11 Vandaag
12:00
5.6 mm
10
18:00
 
9
 07:33     17:48    Daglengte: 10:15 Morgen
00:00
 
9
06:00
2.3 mm
11
12:00
9.2 mm
11
18:00
10°
14.9 mm
11
 07:31     17:50    Daglengte: 10:19 Zaterdag 22 Feb
00:00
10°
15.3 mm
12
06:00
3.8 mm
9
12:00
16.1 mm
12
18:00
16.3 mm
8
 07:28     17:52    Daglengte: 10:24 Zondag 23 Feb
00:00
32.1 mm
6
06:00
50.1 mm
5
Locatie info
Region: Kildare
Latitude: 53.3817°N
Longitude: -6.5904°E
56 masl
Postcode: -1
Temp/Neerslag /Baro Onweer/Dauwpunt
    Temp Baro 1h Neerslag Dauwpunt Wind UV Bewolking  
 07:35     17:46    Daglengte: 10:11 Vandaag
09:00
Voelt als: -1.1°
1002.8 hPa 5.6 mm
49%
1.8°
8
Windvlaag: 0.7 m/s
77%
10:00
Voelt als: -1.2°
1004.1 hPa
20%
0.8°
9
Windvlaag: 2.5 m/s
20%
11:00
Voelt als: -0.8°
1005.4 hPa
61%
-0.4°
10
Windvlaag: 2.3 m/s
26%
12:00
Voelt als: -0.3°
1006.5 hPa
18%
-0.6°
10
Windvlaag: 2.3 m/s
20%
13:00
Voelt als: 0.2°
1007.5 hPa
77%
-2.2°
11
Windvlaag: 2.6 m/s
8%
14:00
Voelt als: 0.7°
1008.4 hPa
77%
-2.0°
10
Windvlaag: 2.4 m/s
12%
15:00
Voelt als: 0.8°
1009.2 hPa
64%
-2.4°
11
Windvlaag: 2.5 m/s
15%
16:00
Voelt als: 0.5°
1010.3 hPa
15%
-1.9°
11
Windvlaag: 3.1 m/s
10%
17:00
Voelt als: -0.1°
1011.4 hPa
14%
-1.6°
10
Windvlaag: 2.9 m/s
6%
18:00
Voelt als: -0.5°
1012.4 hPa
14%
-1.5°
9
Windvlaag: 3.5 m/s
17%
19:00
Voelt als: -0.7°
1013.3 hPa
14%
-1.2°
9
Windvlaag: 3.6 m/s
37%
20:00
Voelt als: -0.7°
1014.2 hPa
14%
-0.6°
9
Windvlaag: 3.7 m/s
19%
21:00
Voelt als: -0.7°
1014.7 hPa
14%
-0.4°
8
Windvlaag: 4.2 m/s
18%
22:00
Voelt als: -0.7°
1015.2 hPa
14%
-0.1°
8
Windvlaag: 4.2 m/s
36%
23:00
Voelt als: -0.6°
1015.9 hPa
15%
0.1°
8
Windvlaag: 4.9 m/s
47%
 07:33     17:48    Daglengte: 10:15 Morgen
00:00
Voelt als: -0.4°
1015.8 hPa
17%
0.4°
9
Windvlaag: 6.2 m/s
74%
01:00
Voelt als: -0.1°
1015.4 hPa
17%
0.6°
9
Windvlaag: 6.8 m/s
84%
02:00
Voelt als: 0.1°
1014.6 hPa
15%
0.2°
10
Windvlaag: 7.3 m/s
80%
03:00
Voelt als: 0.3°
1013.7 hPa
80%
0.8°
10
Windvlaag: 8 m/s
65%
04:00
Voelt als: 0.4°
1012.7 hPa
82%
1.7°
11
Windvlaag: 8.3 m/s
63%
05:00
Voelt als: 1.2°
1011.8 hPa
72%
2.5°
11
Windvlaag: 8.3 m/s
85%
06:00
Voelt als: 1.8°
1011.2 hPa 2.3 mm
78%
3.3°
11
Windvlaag: 8.3 m/s
84%
07:00
Voelt als: 2.5°
1010.7 hPa 1.7 mm
82%
3.7°
12
Windvlaag: 8.1 m/s
77%
08:00
Voelt als: 3.0°
1010.2 hPa 1.7 mm
82%
4.1°
12
Windvlaag: 8.1 m/s
80%
09:00
Voelt als: 3.5°
1010.0 hPa 2.3 mm
82%
4.5°
12
Windvlaag: 8 m/s
83%
10:00
Voelt als: 4.3°
1009.7 hPa
80%
5.1°
12
Windvlaag: 8.1 m/s
88%
11:00
Voelt als: 4.5°
1009.7 hPa 1.8 mm
77%
5.6°
12
Windvlaag: 7.9 m/s
90%
12:00
Voelt als: 5.0°
1009.5 hPa 1.8 mm
82%
6.3°
11
Windvlaag: 7.6 m/s
88%
13:00
10°
Voelt als: 5.6°
1009.1 hPa 2.1 mm
82%
7.1°
11
Windvlaag: 7.5 m/s
82%
14:00
10°
Voelt als: 5.7°
1008.5 hPa 2.2 mm
82%
7.6°
11
Windvlaag: 7.5 m/s
83%
15:00
10°
Voelt als: 5.9°
1008.0 hPa 2.4 mm
82%
7.9°
11
Windvlaag: 7.2 m/s
86%
16:00
10°
Voelt als: 6.0°
1007.4 hPa 2.4 mm
82%
7.9°
11
Windvlaag: 7.3 m/s
89%
17:00
10°
1007.0 hPa 2.4 mm
82%
7.9°
11
Windvlaag: 7 m/s
89%
18:00
10°
1006.5 hPa 3.4 mm
75%
8.2°
11
Windvlaag: 6.8 m/s
89%
19:00
10°
1006.2 hPa 2.4 mm
82%
8.4°
11
Windvlaag: 6.9 m/s
90%
20:00
10°
1005.9 hPa 2.8 mm
82%
8.6°
11
Windvlaag: 6.7 m/s
91%
21:00
11°
1005.9 hPa 3.0 mm
82%
8.6°
12
Windvlaag: 4.7 m/s
90%
22:00
11°
1005.6 hPa
81%
8.9°
12
Windvlaag: 4.9 m/s
88%
23:00
10°
1005.7 hPa 3.5 mm
82%
8.4°
11
Windvlaag: 5.7 m/s
90%
 07:31     17:50    Daglengte: 10:19 Zaterdag 22 Feb
00:00
10°
1006.1 hPa 3.6 mm
82%
6.8°
12
Windvlaag: 4.9 m/s
83%
01:00
Voelt als: 5.2°
1006.7 hPa
80%
4.6°
11
Windvlaag: 5 m/s
83%
02:00
Voelt als: 4.4°
1007.1 hPa
73%
3.2°
11
Windvlaag: 5.4 m/s
76%
03:00
Voelt als: 3.9°
1007.5 hPa
97%
3.7°
10
Windvlaag: 5.9 m/s
98%
04:00
Voelt als: 3.3°
1007.8 hPa
97%
4.5°
10
Windvlaag: 5.8 m/s
90%
05:00
Voelt als: 2.9°
1008.1 hPa
87%
4.8°
10
Windvlaag: 5.7 m/s
84%
06:00
Voelt als: 2.7°
1008.7 hPa 3.8 mm
92%
4.7°
9
Windvlaag: 5.4 m/s
94%
07:00
Voelt als: 2.2°
1009.5 hPa
32%
4.3°
10
Windvlaag: 5.7 m/s
83%
08:00
Voelt als: 2.0°
1010.0 hPa 3.9 mm
30%
3.9°
9
Windvlaag: 4.7 m/s
87%
09:00
Voelt als: 1.7°
1010.9 hPa 4.1 mm
78%
3.8°
9
Windvlaag: 4.6 m/s
91%
10:00
Voelt als: 2.0°
1011.4 hPa
85%
3.3°
11
Windvlaag: 4.7 m/s
93%
11:00
Voelt als: 2.3°
1011.8 hPa 4.1 mm
92%
3.5°
10
Windvlaag: 4.6 m/s
95%
12:00
Voelt als: 2.7°
1012.2 hPa 4.1 mm
92%
2.4°
12
Windvlaag: 4.5 m/s
88%
13:00
Voelt als: 2.7°
1012.7 hPa 4.0 mm
92%
1.9°
12
Windvlaag: 5.4 m/s
96%
14:00
Voelt als: 3.1°
1012.8 hPa
96%
1.4°
11
Windvlaag: 5.2 m/s
96%
15:00
Voelt als: 2.9°
1013.3 hPa 4.1 mm
97%
1.3°
10
Windvlaag: 4.8 m/s
94%
16:00
Voelt als: 2.2°
1013.8 hPa
96%
1.6°
10
Windvlaag: 4.6 m/s
97%
17:00
Voelt als: 1.8°
1014.3 hPa 4.0 mm
43%
1.4°
9
Windvlaag: 4.6 m/s
96%
18:00
Voelt als: 1.4°
1014.9 hPa 4.1 mm
34%
1.7°
8
Windvlaag: 4.1 m/s
92%
19:00
Voelt als: 1.5°
1015.1 hPa 6.8 mm
92%
2.1°
7
Windvlaag: 7.7 m/s
93%
20:00
Voelt als: 1.5°
1015.2 hPa
95%
2.5°
7
Windvlaag: 8.8 m/s
96%
21:00
Voelt als: 1.5°
1015.3 hPa 6.7 mm
100%
2.8°
7
Windvlaag: 8.6 m/s
96%
22:00
Voelt als: 1.6°
1015.6 hPa 7.4 mm
100%
3.3°
6
Windvlaag: 6.7 m/s
99%
23:00
Voelt als: 1.8°
1015.7 hPa 4.2 mm
100%
3.7°
6
Windvlaag: 7.4 m/s
98%
 07:28     17:52    Daglengte: 10:24 Zondag 23 Feb
00:00
Voelt als: 1.7°
1015.5 hPa 7.1 mm
100%
3.9°
6
Windvlaag: 3.9 m/s
100%
01:00
Voelt als: 1.8°
1015.8 hPa 7.3 mm
100%
4.0°
6
Windvlaag: 12.5 m/s
100%
02:00
Voelt als: 2.0°
1015.4 hPa 7.7 mm
100%
4.1°
5
Windvlaag: 10 m/s
100%
03:00
Voelt als: 2.1°
1014.8 hPa 8.0 mm
100%
4.2°
5
Windvlaag: 8.3 m/s
100%
04:00
Voelt als: 2.3°
1014.1 hPa 8.6 mm
100%
4.3°
5
Windvlaag: 3.5 m/s
100%
05:00
Voelt als: 2.3°
1014.1 hPa 9.2 mm
100%
4.3°
5
Windvlaag: 5.1 m/s
100%
06:00
Voelt als: 2.0°
1014.2 hPa 9.4 mm
100%
4.1°
5
Windvlaag: 1.1 m/s
100%
07:00
Voelt als: 2.5°
1016.3 hPa 27.4 mm
100%
3.9°
4
Windvlaag: 4.7 m/s
92%
08:00
Voelt als: 2.7°
1017.3 hPa 28.5 mm
100%
3.6°
4
Windvlaag: 6.5 m/s
83%
Temp/Neerslag /Baro Onweer/Dauwpunt
    Temp Baro Neerslag Dauwpunt Wind Bewolking  
 07:35     17:46    Daglengte: 10:11 Vandaag
09:00
Voelt als: -1.1°
1002.8 hPa 5.6 mm 1.8°
8
77%
12:00
Voelt als: -0.3°
1006.5 hPa   -0.6°
10
20%
15:00
Voelt als: 0.8°
1009.2 hPa   -2.4°
11
15%
18:00
Voelt als: -0.5°
1012.4 hPa   -1.5°
9
17%
21:00
Voelt als: -0.7°
1014.7 hPa   -0.4°
8
18%
 07:33     17:48    Daglengte: 10:15 Morgen
00:00
Voelt als: -0.4°
1015.8 hPa   0.4°
9
74%
03:00
Voelt als: 0.3°
1013.7 hPa   0.8°
10
65%
06:00
Voelt als: 1.8°
1011.2 hPa 2.3 mm 3.3°
11
84%
09:00
Voelt als: 3.5°
1010.0 hPa 5.6 mm 4.5°
12
83%
12:00
Voelt als: 5.0°
1009.5 hPa 3.6 mm 6.3°
11
88%
15:00
10°
Voelt als: 5.9°
1008.0 hPa 6.8 mm 7.9°
11
86%
18:00
10°
1006.5 hPa 8.1 mm 8.2°
11
89%
21:00
11°
1005.9 hPa 8.2 mm 8.6°
12
90%
 07:31     17:50    Daglengte: 10:19 Zaterdag 22 Feb
00:00
10°
1006.1 hPa 7.1 mm 6.8°
12
83%
03:00
Voelt als: 3.9°
1007.5 hPa   3.7°
10
98%
06:00
Voelt als: 2.7°
1008.7 hPa 3.8 mm 4.7°
9
94%
09:00
Voelt als: 1.7°
1010.9 hPa 7.9 mm 3.8°
9
91%
12:00
Voelt als: 2.7°
1012.2 hPa 8.2 mm 2.4°
12
88%
15:00
Voelt als: 2.9°
1013.3 hPa 8.1 mm 1.3°
10
94%
18:00
Voelt als: 1.4°
1014.9 hPa 8.2 mm 1.7°
8
92%
21:00
Voelt als: 1.5°
1015.3 hPa 13.4 mm 2.8°
7
96%
 07:28     17:52    Daglengte: 10:24 Zondag 23 Feb
00:00
Voelt als: 1.7°
1015.5 hPa 18.7 mm 3.9°
6
100%
03:00
Voelt als: 2.1°
1014.8 hPa 23.0 mm 4.2°
5
100%
06:00
Voelt als: 2.0°
1014.2 hPa 27.1 mm 4.1°
5
100%
09:00
Voelt als: 3.0°
1018.3 hPa 84.5 mm 3.3°
4
75%
12:00
Voelt als: 4.1°
1021.4 hPa 85.8 mm 2.2°
5
47%
15:00
Voelt als: 5.1°
1023.1 hPa 26.9 mm 1.9°
2
74%
18:00
Voelt als: 6.0°
1023.8 hPa 27.0 mm 1.7°
1
92%
21:00
Voelt als: 5.0°
1020.3 hPa 27.0 mm 4.4°
3
92%
 07:26     17:54    Daglengte: 10:28 Maandag 24 Feb
00:00
Voelt als: 5.2°
1016.5 hPa 28.6 mm 7.1°
6
92%
03:00
Voelt als: 5.4°
1012.2 hPa 29.2 mm 7.6°
7
92%
06:00
Voelt als: 5.4°
1008.2 hPa 32.2 mm 7.6°
9
92%
09:00
Voelt als: 4.8°
1007.6 hPa 34.1 mm 6.8°
8
92%
12:00
Voelt als: 4.1°
1007.3 hPa 34.3 mm 5.8°
8
92%
15:00
Voelt als: 3.2°
1008.5 hPa 34.4 mm 3.1°
7
54%
18:00
Voelt als: 2.1°
1009.7 hPa 34.5 mm 0.1°
6
16%
21:00
Voelt als: 0.7°
1010.8 hPa 34.5 mm -0.3°
7
17%
 07:24     17:56    Daglengte: 10:32 Dinsdag 25 Feb
00:00
Voelt als: -0.8°
1011.9 hPa 34.5 mm -0.7°
7
17%
03:00
Voelt als: -1.0°
1010.3 hPa 34.5 mm -0.5°
7
51%
06:00
Voelt als: -1.3°
1008.7 hPa 34.5 mm -0.3°
7
85%
09:00
Voelt als: -0.1°
1005.2 hPa 34.5 mm 1.6°
7
81%
12:00
Voelt als: 1.1°
1001.7 hPa 35.8 mm 3.7°
7
78%
15:00
Voelt als: 0.0°
1000.6 hPa 36.2 mm 1.1°
8
57%
18:00
Voelt als: -1.8°
999.4 hPa 38.6 mm -1.7°
9
35%
21:00
Voelt als: -3.0°
1000.4 hPa 39.1 mm -2.3°
8
54%
 07:22     17:58    Daglengte: 10:36 Woensdag 26 Feb
00:00
Voelt als: -4.0°
1001.2 hPa 39.1 mm -2.6°
8
72%
03:00
Voelt als: -4.1°
1001.2 hPa 39.1 mm -3.1°
8
63%
06:00
Voelt als: -4.2°
1001.5 hPa 39.1 mm -3.6°
7
54%
09:00
Voelt als: -2.4°
1001.5 hPa 39.1 mm -2.6°
8
60%
12:00
Voelt als: -0.8°
1001.5 hPa 43.7 mm -0.9°
9
67%
15:00
Voelt als: -1.1°
1002.0 hPa 45.3 mm -2.1°
8
42%
18:00
Voelt als: -1.6°
1002.7 hPa 46.2 mm -3.3°
8
17%
21:00
Voelt als: -2.5°
1003.7 hPa 46.3 mm -3.0°
6
53%
 07:19     17:59    Daglengte: 10:40 Donderdag 27 Feb
00:00
Voelt als: -3.3°
1004.5 hPa 46.3 mm -3.0°
5
89%
03:00
Voelt als: -4.3°
1004.4 hPa 46.3 mm -3.0°
4
45% warningclass
06:00
-1°
Voelt als: -5.3°
1004.1 hPa 92.6 mm -3.0°
4
1% warningclass
12:00
Voelt als: 0.3°
1003.1 hPa 98.6 mm -0.2°
6
74%
18:00
Voelt als: -1.5°
1001.6 hPa 100.4 mm 0.5°
6
31%
 07:17     18:01    Daglengte: 10:44 Vrijdag 28 Feb
00:00
Voelt als: -3.5°
1002.7 hPa 101.9 mm -1.0°
5
7% warningclass
06:00
Voelt als: -3.4°
1000.4 hPa 104.7 mm -0.7°
4
85% warningclass
12:00
Voelt als: 1.5°
998.5 hPa 105.9 mm 0.8°
5
62%
18:00
Voelt als: -1.3°
996.8 hPa 109.3 mm -2.4°
5
77%
 07:15     18:03    Daglengte: 10:48 Zaterdag 29 Feb
00:00
Voelt als: -4.8°
997.9 hPa 113.4 mm -2.4°
6
25% warningclass
06:00
Voelt als: -4.6°
1001.4 hPa 115.4 mm -2.9°
6
17% warningclass
12:00
Voelt als: 0.8°
995.7 hPa 115.5 mm 1.2°
8
0%
18:00
Voelt als: 1.0°
1002.0 hPa 115.7 mm 2.9°
4
1%
 07:12     18:05    Daglengte: 10:53 Zondag 01 Maa
00:00
Voelt als: -2.6°
1006.4 hPa 115.8 mm -0.4°
3
0% warningclass
06:00
Voelt als: -0.6°
1005.9 hPa 0.4 mm 1.7°
7
72%
12:00
Voelt als: 3.4°
1005.4 hPa 1.7 mm 4.6°
9
76%
18:00
Voelt als: 2.9°
1006.0 hPa 1.7 mm 4.6°
7
83%
 07:10     18:07    Daglengte: 10:57 Maandag 02 Maa
00:00
Voelt als: 0.7°
1007.1 hPa 0.9 mm 3.2°
6
72%
06:00
Voelt als: -0.0°
1006.1 hPa 1.5 mm 2.4°
6
68%
12:00
Voelt als: 3.9°
1006.3 hPa 0.4 mm 4.3°
9
62%
18:00
Voelt als: 2.4°
1005.9 hPa 1.7 mm 3.6°
7
71%
 07:08     18:09    Daglengte: 11:01 Dinsdag 03 Maa
00:00
Voelt als: -0.2°
1007.1 hPa 0.5 mm 1.8°
6
69%
06:00
Voelt als: 0.5°
1004.3 hPa 2.4 mm 2.6°
6
58%
12:00
Voelt als: 2.9°
1006.7 hPa 0.9 mm 3.2°
9
55%
18:00
Voelt als: 1.4°
1008.8 hPa 0.4 mm 2.1°
7
65%
 07:05     18:11    Daglengte: 11:06 Woensdag 04 Maa
00:00
Voelt als: 0.1°
1009.4 hPa 0.6 mm 1.9°
6
59%
06:00
Voelt als: 0.4°
1007.3 hPa 2.3 mm 2.0°
5
65%
12:00
Voelt als: 4.1°
1008.8 hPa 0.9 mm 3.5°
6
63%
18:00
Voelt als: 2.0°
1010.1 hPa 0.8 mm 2.4°
6
64%
 07:03     18:13    Daglengte: 11:10 Donderdag 05 Maa
00:00
Voelt als: -0.4°
1012.1 hPa 1.0 mm 1.6°
6
46%
06:00
Voelt als: -1.1°
1012.6 hPa 0.3 mm 1.3°
6
43%
12:00
Voelt als: 4.0°
1014.1 hPa 0.5 mm 3.1°
7
47%
18:00
Voelt als: 2.7°
1014.6 hPa 0.5 mm 2.5°
5
64%
 07:01     18:15    Daglengte: 11:14 Vrijdag 06 Maa
00:00
Voelt als: 1.0°
1016.1 hPa 0.4 mm 2.0°
4
52%
06:00
Voelt als: 0.8°
1015.5 hPa 0.9 mm 1.9°
3
59%
  CAPE Lifted Index Hail Supercell Tornado SRH 3km CL BTM PRES CL TOP PRES Swiss DWD icon SMHI TS
 07:35     17:46    Daglengte: 10:11 Vandaag
09:00 35 J/kg 7.3 K 0 % 0 % 0 % 0 m²/s² 0 0 8.2 61
10:00 67 J/kg 7.0 K 0 % 0 % 0 % 0 m²/s² 0 0 10 3
11:00 130 J/kg 7.6 K 0 % 0 % 0 % 0 m²/s² 0 0 9.01 2
12:00 166 J/kg 7.0 K 0 % 0 % 0 % 0 m²/s² 0 0 8.26 2
13:00 136 J/kg 7.7 K 0 % 0 % 0 % 0 m²/s² 0 0 8.45 2
14:00 116 J/kg 8.9 K 0 % 0 % 0 % 0 m²/s² 0 0 10.37 1
15:00 74 J/kg 9.7 K 0 % 0 % 0 % 0 m²/s² 0 0 13.06 1
16:00 31 J/kg 10.9 K 0 % 0 % 0 % 0 m²/s² 0 0 14.86 1
17:00 27 J/kg 11.9 K 0 % 0 % 0 % 0 m²/s² 0 0 17.27 0
18:00 0 J/kg 14.3 K 0 % 0 % 0 % 0 m²/s² 0 0 18.38 1
19:00 0 J/kg 15.3 K 0 % 0 % 0 % 0 m²/s² 0 0 18.33 1
20:00 0 J/kg 16.1 K 0 % 0 % 0 % 0 m²/s² 0 0 18.92 2
21:00 0 J/kg 16.6 K 0 % 0 % 0 % 0 m²/s² 0 0 19.78 2
22:00 0 J/kg 16.9 K 0 % 0 % 0 % 0 m²/s² 0 0 20.11 3
23:00 0 J/kg 16.5 K 0 % 0 % 0 % 0 m²/s² 0 0 19.32 2
 07:33     17:48    Daglengte: 10:15 Morgen
00:00 0 J/kg 16.8 K 0 % 0 % 0 % 0 m²/s² 0 0 19.32 3
01:00 0 J/kg 17.2 K 0 % 0 % 0 % 0 m²/s² 0 0 19.21 3
02:00 0 J/kg 16.9 K 0 % 0 % 0 % 0 m²/s² 0 0 18.04 3
03:00 0 J/kg 16.8 K 0 % 0 % 0 % 0 m²/s² 0 0 17.52 3
04:00 0 J/kg 16.9 K 0 % 0 % 0 % 0 m²/s² 0 0 17.47 61
05:00 0 J/kg 17.2 K 0 % 0 % 0 % 0 m²/s² 0 0 17.83 3
06:00 0 J/kg 16.4 K 0 % 0 % 0 % 0 m²/s² 0 0 17.12 3
07:00 0 J/kg 14.4 K 0 % 0 % 0 % 0 m²/s² 0 0 14.64 61
08:00 0 J/kg 10.3 K 0 % 0 % 0 % 0 m²/s² 0 0 10.84 61
09:00 0 J/kg 9.7 K 0 % 0 % 0 % 0 m²/s² 0 0 10.24 61
10:00 0 J/kg 9.0 K 0 % 0 % 0 % 0 m²/s² 0 0 9.63 61
11:00 0 J/kg 8.7 K 0 % 0 % 0 % 0 m²/s² 0 0 9.24 61
12:00 0 J/kg 8.6 K 0 % 0 % 0 % 0 m²/s² 0 0 9.02 61
13:00 0 J/kg 8.6 K 0 % 0 % 0 % 0 m²/s² 0 0 8.93 61
14:00 0 J/kg 8.7 K 0 % 0 % 0 % 0 m²/s² 0 0 9.03 61
15:00 0 J/kg 8.3 K 0 % 0 % 0 % 0 m²/s² 0 0 8.63 61
16:00 0 J/kg 7.1 K 0 % 0 % 0 % 0 m²/s² 0 0 7.43 61
17:00 0 J/kg 6.7 K 0 % 0 % 0 % 0 m²/s² 0 0 7 61
18:00 0 J/kg 6.2 K 0 % 0 % 0 % 0 m²/s² 0 0 6.53 3
19:00 0 J/kg 6.2 K 0 % 0 % 0 % 0 m²/s² 0 0 6.41 61
20:00 0 J/kg 6.6 K 0 % 0 % 0 % 0 m²/s² 0 0 7.41 61
21:00 0 J/kg 6.7 K 0 % 0 % 0 % 0 m²/s² 0 0 9.31 61
22:00 18 J/kg 6.2 K 0 % 0 % 0 % 0 m²/s² 0 0 10.1 3
23:00 65 J/kg 6.4 K 0 % 0 % 0 % 0 m²/s² 0 0 10.9 80
 07:31     17:50    Daglengte: 10:19 Zaterdag 22 Feb
00:00 96 J/kg 7.0 K 0 % 0 % 0 % 0 m²/s² 0 0 11.95 80
01:00 34 J/kg 8.5 K 0 % 0 % 0 % 0 m²/s² 0 0 12.61 3
02:00 0 J/kg 11.5 K 0 % 0 % 0 % 0 m²/s² 0 0 14.77 3
03:00 0 J/kg 13.4 K 0 % 0 % 0 % 0 m²/s² 0 0 16.25 3
04:00 9 J/kg 14.9 K 0 % 0 % 0 % 0 m²/s² 0 0 17.36 3
05:00 20 J/kg 15.3 K 0 % 0 % 0 % 0 m²/s² 0 0 18.36 3
06:00 46 J/kg 14.7 K 0 % 0 % 0 % 0 m²/s² 0 0 19.02 80
07:00 29 J/kg 15.9 K 0 % 0 % 0 % 0 m²/s² 0 0 20.34 2
08:00 6 J/kg 16.3 K 0 % 0 % 0 % 0 m²/s² 0 0 19.09 3
09:00 5 J/kg 15.8 K 0 % 0 % 0 % 0 m²/s² 0 0 19.07 3
10:00 49 J/kg 15.6 K 0 % 0 % 0 % 0 m²/s² 0 0 17.94 3
11:00 40 J/kg 15.6 K 0 % 0 % 0 % 0 m²/s² 0 0 17.55 3
12:00 72 J/kg 15.3 K 0 % 0 % 0 % 0 m²/s² 0 0 17.01 3
13:00 43 J/kg 16.0 K 0 % 0 % 0 % 0 m²/s² 0 0 17.83 3
14:00 46 J/kg 14.9 K 0 % 0 % 0 % 0 m²/s² 0 0 16.4 3
15:00 47 J/kg 15.1 K 0 % 0 % 0 % 0 m²/s² 0 0 16.69 3
16:00 43 J/kg 15.7 K 0 % 0 % 0 % 0 m²/s² 0 0 17.2 3
17:00 21 J/kg 16.2 K 0 % 0 % 0 % 0 m²/s² 0 0 17.58 3
18:00 16 J/kg 16.4 K 0 % 0 % 0 % 0 m²/s² 0 0 17.84 3
19:00 0 J/kg 16.4 K 0 % 0 % 0 % 0 m²/s² 0 0 17.93 3
20:00 2 J/kg 16.4 K 0 % 0 % 0 % 0 m²/s² 0 0 17.78 3
21:00 10 J/kg 16.9 K 0 % 0 % 0 % 0 m²/s² 0 0 18.19 61
22:00 0 J/kg 16.2 K 0 % 0 % 0 % 0 m²/s² 0 0 17.28 61
23:00 7 J/kg 15.7 K 0 % 0 % 0 % 0 m²/s² 0 0 16.54 61
 07:28     17:52    Daglengte: 10:24 Zondag 23 Feb
00:00 0 J/kg 15.8 K 0 % 0 % 0 % 0 m²/s² 0 0 16.67 61
01:00 6 J/kg 15.1 K 0 % 0 % 0 % 0 m²/s² 0 0 15.67 61
02:00 6 J/kg 14.7 K 0 % 0 % 0 % 0 m²/s² 0 0 15.21 61
03:00 4 J/kg 14.1 K 0 % 0 % 0 % 0 m²/s² 0 0 14.61 61
04:00 0 J/kg 13.8 K 0 % 0 % 0 % 0 m²/s² 0 0 14.28 61
05:00 1 J/kg 13.4 K 0 % 0 % 0 % 0 m²/s² 0 0 13.85 61
06:00 1 J/kg 12.7 K 0 % 0 % 0 % 0 m²/s² 0 0 13.09 61
07:00 0 J/kg 13.5 K 0 % 0 % 0 % 0 m²/s² 0 0 13.95
08:00 2 J/kg 14.4 K 0 % 0 % 0 % 0 m²/s² 0 0 14.79
Temp Baro Wind Neerslag
  EWN Forecast EWN WRFDA DWD ICON FMI HIRLAM MET Norway GFS
 07:35     17:46    Daglengte: 10:11 Vandaag
09:00 3.9° 1002.8 hPa 7.8 m/s 5.6 mm 4.5° 1001.4 hPa 8.6 m/s 10.5 mm 5.2° 1003.1 hPa 9.4 m/s 6.6 mm 3.8° 1001.8 hPa 8.0 m/s 0.0 mm 3.4° 1003.0 hPa 6.5 m/s 3.6° 1002.3 hPa 7.1 m/s
12:00 5.0° 1006.5 hPa 9.7 m/s 0.0 mm 3.8° 1004.8 hPa 8.9 m/s 31.6 mm 5.5° 1007.1 hPa 11.6 m/s 0.0 mm 4.2° 1006.3 hPa 9.6 m/s 0.0 mm 5.1° 1006.6 hPa 8.5 m/s 4.4° 1006.9 hPa 10.2 m/s
15:00 6.0° 1009.2 hPa 10.8 m/s 0.0 mm 5.7° 1007.8 hPa 11.2 m/s 32.4 mm 6.1° 1009.9 hPa 12.1 m/s 0.1 mm 5.2° 1009.2 hPa 10.5 m/s 0.0 mm 6.0° 1009.4 hPa 8.9 m/s 4.8° 1009.9 hPa 10.6 m/s
18:00 4.8° 1012.4 hPa 9.3 m/s 0.0 mm 3.3° 1011.5 hPa 8.3 m/s 32.6 mm 4.3° 1013.3 hPa 9.5 m/s 0.0 mm 4.9° 1012.1 hPa 9.6 m/s 0.0 mm 4.8° 1012.8 hPa 7.3 m/s 2.6° 1014.0 hPa 7.1 m/s
21:00 4.4° 1014.7 hPa 8.5 m/s 0.0 mm 2.9° 1013.8 hPa 8.1 m/s 32.6 mm 4.0° 1015.5 hPa 8.7 m/s 0.0 mm 5.0° 1014.2 hPa 8.7 m/s 0.0 mm 4.4° 1015.1 hPa 6.6 m/s 2.2° 1016.1 hPa 6.8 m/s
 07:33     17:48    Daglengte: 10:15 Morgen
00:00 4.7° 1015.8 hPa 8.5 m/s 0.0 mm 2.9° 1015.9 hPa 9.9 m/s 32.6 mm 4.1° 1016.0 hPa 9.1 m/s 0.0 mm 4.8° 1014.7 hPa 8.3 m/s 0.0 mm 4.8° 1016.3 hPa 6.5 m/s 3.0° 1018.1 hPa 8.0 m/s
03:00 5.6° 1013.7 hPa 10.1 m/s 0.0 mm 3.6° 1013.3 hPa 11.2 m/s 32.6 mm 5.3° 1014.7 hPa 10.8 m/s 0.0 mm 5.9° 1012.5 hPa 9.6 m/s 0.0 mm 5.8° 1014.3 hPa 7.8 m/s 4.7° 1015.5 hPa 9.7 m/s
06:00 6.9° 1011.2 hPa 11.4 m/s 2.3 mm 6.1° 1011.2 hPa 13.4 m/s 32.6 mm 6.8° 1011.7 hPa 12.8 m/s 0.1 mm 7.3° 1009.4 hPa 10.3 m/s 0.0 mm 7.0° 1012.1 hPa 8.4 m/s 6.7° 1013.8 hPa 10.9 m/s
09:00 8.3° 1010.0 hPa 12.0 m/s 5.6 mm 7.7° 1009.2 hPa 14.9 m/s 32.6 mm 8.0° 1011.0 hPa 12.9 m/s 0.3 mm 9.2° 1008.4 hPa 11.5 m/s 0.0 mm 8.5° 1010.9 hPa 9.1 m/s 7.9° 1011.9 hPa 12.0 m/s
12:00 9.3° 1009.5 hPa 11.5 m/s 3.6 mm 8.8° 1009.3 hPa 13.2 m/s 32.8 mm 9.1° 1011.2 hPa 12.1 m/s 0.8 mm 9.9° 1007.5 hPa 11.7 m/s 0.0 mm 9.6° 1009.9 hPa 8.0 m/s 8.6° 1011.1 hPa 10.8 m/s
15:00 9.9° 1008.0 hPa 11.2 m/s 6.8 mm 9.0° 1007.5 hPa 12.9 m/s 38.0 mm 9.8° 1009.4 hPa 11.7 m/s 1.8 mm 10.7° 1006.6 hPa 11.4 m/s 0.0 mm 10.2° 1008.6 hPa 9.0 m/s 9.0° 1008.8 hPa 10.2 m/s
18:00 10.2° 1006.5 hPa 10.9 m/s 8.1 mm 9.4° 1005.9 hPa 12.6 m/s 43.7 mm 9.8° 1007.6 hPa 11.7 m/s 0.5 mm 11.2° 1005.4 hPa 11.4 m/s 0.0 mm 10.2° 1007.2 hPa 8.8 m/s 9.7° 1006.9 hPa 11.1 m/s
21:00 10.7° 1005.9 hPa 11.7 m/s 8.2 mm 10.0° 1004.7 hPa 11.5 m/s 47.2 mm 10.0° 1006.1 hPa 12.0 m/s 1.6 mm 11.9° 1004.8 hPa 12.4 m/s 0.0 mm 10.6° 1006.1 hPa 9.4 m/s 10.7° 1005.9 hPa 10.8 m/s
 07:31     17:50    Daglengte: 10:19 Zaterdag 22 Feb
00:00 10.3° 1006.1 hPa 11.6 m/s 7.1 mm 10.5° 1004.5 hPa 11.1 m/s 49.1 mm 10.3° 1005.6 hPa 11.7 m/s 0.8 mm 12.0° 1004.5 hPa 14.6 m/s 0.0 mm 9.4° 1007.8 hPa 9.4 m/s 9.9° 1005.9 hPa 9.8 m/s
03:00 8.3° 1007.5 hPa 10.2 m/s 0.0 mm 6.8° 1004.5 hPa 10.5 m/s 52.9 mm 8.4° 1007.7 hPa 10.3 m/s 0.3 mm 8.3° 1008.2 hPa 8.3 m/s 7.0° 1005.7 hPa 10.1 m/s
06:00 7.2° 1008.7 hPa 9.3 m/s 3.8 mm 6.1° 1006.0 hPa 8.9 m/s 53.8 mm 7.0° 1009.8 hPa 9.8 m/s 0.2 mm 7.1° 1008.9 hPa 8.3 m/s 5.6° 1007.9 hPa 9.4 m/s
09:00 6.5° 1010.9 hPa 9.4 m/s 7.9 mm 5.1° 1007.8 hPa 10.6 m/s 56.3 mm 6.7° 1012.0 hPa 9.5 m/s 0.0 mm 6.4° 1011.2 hPa 8.4 m/s 4.2° 1010.0 hPa 9.4 m/s
12:00 7.6° 1012.2 hPa 11.5 m/s 8.2 mm 6.3° 1010.5 hPa 12.2 m/s 58.2 mm 7.6° 1013.5 hPa 11.8 m/s 0.1 mm 7.6° 1012.3 hPa 9.8 m/s 4.9° 1012.9 hPa 10.7 m/s
15:00 7.6° 1013.3 hPa 10.3 m/s 8.1 mm 6.5° 1011.3 hPa 12.4 m/s 58.8 mm 7.1° 1014.5 hPa 10.0 m/s 0.1 mm 7.7° 1013.5 hPa 9.2 m/s 4.8° 1013.8 hPa 9.9 m/s
18:00 5.9° 1014.9 hPa 7.7 m/s 8.2 mm 4.5° 1013.7 hPa 9.0 m/s 58.9 mm 6.2° 1015.2 hPa 7.6 m/s 0.0 mm 5.8° 1015.2 hPa 6.7 m/s 3.4° 1015.5 hPa 7.7 m/s
21:00 5.7° 1015.3 hPa 6.8 m/s 13.4 mm 4.3° 1015.3 hPa 8.2 m/s 58.9 mm 5.7° 1015.0 hPa 6.6 m/s 0.1 mm 5.7° 1015.9 hPa 6.2 m/s 3.2° 1017.4 hPa 5.8 m/s
 07:28     17:52    Daglengte: 10:24 Zondag 23 Feb
00:00 5.7° 1015.5 hPa 6.3 m/s 18.7 mm 4.8° 1015.7 hPa 7.9 m/s 60.2 mm 5.9° 1014.1 hPa 6.1 m/s 0.9 mm 5.6° 1016.5 hPa 5.6 m/s 4.5° 1017.8 hPa 6.5 m/s
03:00 5.7° 1014.8 hPa 5.1 m/s 23.0 mm 3.9° 1014.6 hPa 3.4 m/s 64.7 mm 6.2° 1011.2 hPa 5.5 m/s 2.1 mm 5.8° 1016.1 hPa 5.2 m/s 4.1° 1016.0 hPa 4.9 m/s
06:00 5.5° 1014.2 hPa 4.8 m/s 27.1 mm 2.6° 1013.4 hPa 3.5 m/s 75.8 mm 5.5° 1010.8 hPa 5.0 m/s 2.8 mm 6.0° 1015.7 hPa 4.9 m/s 4.3° 1014.4 hPa 3.0 m/s
09:00 6.1° 1018.3 hPa 4.5 m/s 84.5 mm 2.9° 1015.1 hPa 3.2 m/s 84.5 mm 6.7° 1018.8 hPa 4.7 m/s 4.4° 1015.7 hPa 3.8 m/s
12:00 7.1° 1021.4 hPa 4.6 m/s 85.8 mm 5.7° 1018.1 hPa 5.5 m/s 85.8 mm 7.3° 1021.9 hPa 4.5 m/s 5.0° 1019.5 hPa 3.6 m/s
15:00 6.6° 1023.1 hPa 2.1 m/s 26.9 mm 6.6° 1023.3 hPa 2.1 m/s 6.5° 1021.2 hPa 2.4 m/s 26.9 mm
18:00 6.1° 1023.8 hPa 0.9 m/s 27.0 mm 6.3° 1024.0 hPa 0.9 m/s 3.8° 1022.0 hPa 1.4 m/s 27.0 mm
21:00 7.2° 1020.3 hPa 3.3 m/s 27.0 mm 7.4° 1020.4 hPa 3.2 m/s 4.4° 1020.2 hPa 3.8 m/s 27.0 mm
 07:26     17:54    Daglengte: 10:28 Maandag 24 Feb
00:00 8.3° 1016.5 hPa 5.6 m/s 28.6 mm 8.6° 1016.7 hPa 5.6 m/s 4.8° 1014.7 hPa 5.7 m/s 28.6 mm
03:00 8.9° 1012.2 hPa 7.5 m/s 29.2 mm 8.8° 1012.8 hPa 7.1 m/s 10.6° 1006.1 hPa 11.0 m/s 29.2 mm
06:00 9.2° 1008.2 hPa 8.9 m/s 32.2 mm 9.0° 1008.8 hPa 8.7 m/s 11.2° 1002.2 hPa 11.2 m/s 32.2 mm
09:00 8.7° 1007.6 hPa 8.5 m/s 34.1 mm 8.6° 1008.2 hPa 8.1 m/s 10.3° 1001.1 hPa 12.7 m/s 34.1 mm
12:00 8.0° 1007.3 hPa 7.8 m/s 34.3 mm 8.1° 1007.6 hPa 7.5 m/s 6.8° 1003.9 hPa 11.5 m/s 34.3 mm
15:00 7.2° 1008.5 hPa 7.3 m/s 34.4 mm 7.2° 1008.7 hPa 6.9 m/s 7.6° 1006.6 hPa 11.3 m/s 34.4 mm
18:00 6.1° 1009.7 hPa 6.4 m/s 34.5 mm 6.2° 1009.8 hPa 6.3 m/s 5.0° 1008.4 hPa 7.9 m/s 34.5 mm
21:00 5.0° 1010.8 hPa 6.5 m/s 34.5 mm 5.1° 1010.9 hPa 6.4 m/s 3.7° 1010.2 hPa 7.4 m/s 34.5 mm
 07:24     17:56    Daglengte: 10:32 Dinsdag 25 Feb
00:00 3.9° 1011.9 hPa 6.6 m/s 34.5 mm 4.0° 1012.0 hPa 6.6 m/s 2.6° 1010.9 hPa 6.1 m/s 34.5 mm
03:00 3.7° 1010.3 hPa 6.7 m/s 34.5 mm 3.9° 1010.4 hPa 6.8 m/s 2.0° 1009.8 hPa 5.8 m/s 34.5 mm
06:00 3.5° 1008.7 hPa 6.8 m/s 34.5 mm 3.7° 1008.8 hPa 6.9 m/s 1.4° 1007.9 hPa 5.6 m/s 34.5 mm
09:00 4.5° 1005.2 hPa 7.2 m/s 34.5 mm 4.7° 1005.2 hPa 7.2 m/s 2.9° 1004.8 hPa 7.7 m/s 34.5 mm
12:00 5.6° 1001.7 hPa 7.4 m/s 35.8 mm 5.7° 1001.7 hPa 7.4 m/s 4.6° 1002.1 hPa 7.8 m/s 35.8 mm
15:00 4.9° 1000.6 hPa 8.1 m/s 36.2 mm 4.7° 1000.8 hPa 8.1 m/s 7.1° 998.4 hPa 8.1 m/s 36.2 mm
18:00 3.7° 999.4 hPa 8.8 m/s 38.6 mm 3.7° 999.8 hPa 8.8 m/s 3.5° 995.5 hPa 8.6 m/s 38.6 mm
21:00 2.6° 1000.4 hPa 8.3 m/s 39.1 mm 2.9° 1000.8 hPa 8.4 m/s 0.0° 995.7 hPa 7.8 m/s 39.1 mm
 07:22     17:58    Daglengte: 10:36 Woensdag 26 Feb
00:00 1.8° 1001.2 hPa 8.0 m/s 39.1 mm 2.0° 1001.9 hPa 8.0 m/s 0.0° 993.8 hPa 8.5 m/s 39.1 mm
03:00 1.7° 1001.2 hPa 7.7 m/s 39.1 mm 1.8° 1002.0 hPa 7.5 m/s 0.6° 992.2 hPa 9.1 m/s 39.1 mm
06:00 1.4° 1001.5 hPa 7.3 m/s 39.1 mm 1.5° 1002.2 hPa 7.1 m/s 0.1° 993.7 hPa 9.0 m/s 39.1 mm
09:00 3.0° 1001.5 hPa 7.7 m/s 39.1 mm 3.1° 1002.2 hPa 7.8 m/s 1.5° 994.4 hPa 7.1 m/s 39.1 mm
12:00 4.4° 1001.5 hPa 8.8 m/s 43.7 mm 4.7° 1002.1 hPa 8.4 m/s 1.7° 995.4 hPa 12.8 m/s 43.7 mm
15:00 4.1° 1002.0 hPa 8.3 m/s 45.3 mm 4.2° 1002.4 hPa 8.0 m/s 3.1° 998.7 hPa 12.5 m/s 45.3 mm
18:00 3.5° 1002.7 hPa 7.6 m/s 46.2 mm 3.7° 1002.6 hPa 7.5 m/s 1.4° 1003.5 hPa 9.2 m/s 46.2 mm
21:00 2.4° 1003.7 hPa 6.2 m/s 46.3 mm 2.6° 1003.3 hPa 6.2 m/s 0.5° 1008.2 hPa 6.6 m/s 46.3 mm
 07:19     17:59    Daglengte: 10:40 Donderdag 27 Feb
00:00 1.3° 1004.5 hPa 5.0 m/s 46.3 mm 1.5° 1004.0 hPa 4.9 m/s -0.9° 1010.3 hPa 6.1 m/s 46.3 mm
03:00 0.2° 1004.4 hPa 4.4 m/s 46.3 mm 0.3° 1003.9 hPa 4.3 m/s -0.6° 1010.1 hPa 5.5 m/s 46.3 mm
06:00 -0.7° 1004.1 hPa 4.1 m/s 46.3 mm -0.9° 1003.7 hPa 3.8 m/s 0.9° 1008.3 hPa 7.6 m/s 46.3 mm
12:00 4.7° 1003.1 hPa 6.3 m/s 49.5 mm 4.7° 1002.6 hPa 6.3 m/s 4.1° 1009.2 hPa 6.7 m/s 49.5 mm
18:00 2.9° 1001.6 hPa 5.6 m/s 50.3 mm 2.9° 1001.1 hPa 5.6 m/s 3.3° 1007.2 hPa 5.3 m/s 50.3 mm
 07:17     18:01    Daglengte: 10:44 Vrijdag 28 Feb
00:00 1.0° 1002.7 hPa 4.8 m/s 51.0 mm 0.9° 1002.6 hPa 5.0 m/s 2.1° 1003.9 hPa 2.1 m/s 51.0 mm
06:00 1.0° 1000.4 hPa 4.5 m/s 52.8 mm 0.8° 1000.9 hPa 4.8 m/s 2.8° 995.3 hPa 1.2 m/s 52.8 mm
12:00 5.1° 998.5 hPa 4.9 m/s 52.9 mm 5.0° 999.3 hPa 5.2 m/s 6.0° 990.2 hPa 1.9 m/s 52.9 mm
18:00 2.8° 996.8 hPa 4.9 m/s 56.1 mm 2.7° 998.2 hPa 4.9 m/s 4.4° 981.8 hPa 4.7 m/s 56.1 mm
 07:15     18:03    Daglengte: 10:48 Zaterdag 29 Feb
00:00 0.5° 997.9 hPa 6.0 m/s 56.8 mm 0.4° 999.6 hPa 6.0 m/s 1.4° 979.5 hPa 5.6 m/s 56.8 mm
06:00 0.6° 1001.4 hPa 5.9 m/s 57.7 mm 0.7° 1002.8 hPa 5.8 m/s -0.3° 986.3 hPa 6.5 m/s 57.7 mm
12:00 5.5° 995.7 hPa 7.8 m/s 57.8 mm 5.5° 995.7 hPa 7.8 m/s 57.8 mm
18:00 4.4° 1002.0 hPa 4.1 m/s 57.9 mm 4.4° 1002.0 hPa 4.1 m/s 57.9 mm
 07:12     18:05    Daglengte: 10:53 Zondag 01 Maa
00:00 0.5° 1006.4 hPa 2.6 m/s 57.9 mm 0.5° 1006.4 hPa 2.6 m/s 57.9 mm
06:00 4.0° 1005.9 hPa 6.7 m/s 0.4 mm
12:00 7.6° 1005.4 hPa 8.6 m/s 1.7 mm
18:00 6.8° 1006.0 hPa 6.5 m/s 1.7 mm
 07:10     18:07    Daglengte: 10:57 Maandag 02 Maa
00:00 5.0° 1007.1 hPa 6.5 m/s 0.9 mm
06:00 4.2° 1006.1 hPa 5.9 m/s 1.5 mm
12:00 8.1° 1006.3 hPa 9.0 m/s 0.4 mm
18:00 6.4° 1005.9 hPa 6.9 m/s 1.7 mm
 07:08     18:09    Daglengte: 11:01 Dinsdag 03 Maa
00:00 4.0° 1007.1 hPa 5.6 m/s 0.5 mm
06:00 4.7° 1004.3 hPa 6.0 m/s 2.4 mm
12:00 7.3° 1006.7 hPa 9.0 m/s 0.9 mm
18:00 5.6° 1008.8 hPa 6.7 m/s 0.4 mm
 07:05     18:11    Daglengte: 11:06 Woensdag 04 Maa
00:00 4.3° 1009.4 hPa 5.8 m/s 0.6 mm
06:00 4.2° 1007.3 hPa 4.8 m/s 2.3 mm
12:00 7.6° 1008.8 hPa 6.2 m/s 0.9 mm
18:00 5.8° 1010.1 hPa 5.7 m/s 0.8 mm
 07:03     18:13    Daglengte: 11:10 Donderdag 05 Maa
00:00 3.9° 1012.1 hPa 5.8 m/s 1.0 mm
06:00 3.2° 1012.6 hPa 5.5 m/s 0.3 mm
12:00 7.7° 1014.1 hPa 7.3 m/s 0.5 mm
18:00 6.0° 1014.6 hPa 4.7 m/s 0.5 mm
 07:01     18:15    Daglengte: 11:14 Vrijdag 06 Maa
00:00 4.3° 1016.1 hPa 4.1 m/s 0.4 mm
06:00 3.9° 1015.5 hPa 3.5 m/s 0.9 mm
FMI Hirlam - 7.5 km EWN WRFDA - 12 km DWD ICON - 7 km GFS - 25 km Basiskaart






























































Updatetijd (Europe/Brussels) Resolutie Lengte Stap
FMI Hirlam 06:15, 12:15, 18:15, 00:15 7.5 km 49h 1h
EWN WRFDA 08:45, 14:45, 20:45, 02:45 12 km 73h 1h
DWD ICON 04:45, 10:45, 16:45, 22:45 7 km 75h 1h
GFS 07:00, 13:00, 19:00, 01:00 25 km 237h 3h
30+ mm
25-30 mm
20-25 mm
15-20 mm
10-15 mm
6-10 mm
4-6 mm
2-4 mm
1-2 mm
0.5-1 mm
0.2-0.5 mm
0.1-0.2 mm
30+ mm
25-30 mm
20-25 mm
15-20 mm
10-15 mm
6-10 mm
4-6 mm
2-4 mm
1-2 mm
0.5-1 mm
0.2-0.5 mm
0.1-0.2 mm
Sneeuwval
Natte sneeuw
Hagel
Vorst
30+ mm
25-30 mm
20-25 mm
15-20 mm
10-15 mm
6-10 mm
4-6 mm
2-4 mm
1-2 mm
0.5-1 mm
0.2-0.5 mm
0.1-0.2 mm
Sneeuwval
Natte sneeuw
Hagel
Vorst
Onweer
50 mm
40 mm
30 mm
26 mm
22 mm
18 mm
14 mm
10 mm
9 mm
8 mm
7 mm
6 mm
5 mm
4.5 mm
4 mm
3.5 mm
3 mm
2.5 mm
2 mm
1.5 mm
1 mm
0.8 mm
0.6 mm
0.4 mm
0.2 mm
0.05 mm
35°
30°
25°
20°
15°
10°
-5°
-10°
-15°
-20°
-25°
-30°
-35°
33> m/s
29 m/s
25 m/s
21 m/s
17 m/s
14 m/s
11 m/s
8 m/s
5 m/s
3 m/s
0 m/s
2600 J/kg
2400 J/kg
2200 J/kg
2000 J/kg
1800 J/kg
1600 J/kg
1400 J/kg
1200 J/kg
1000 J/kg
800 J/kg
600 J/kg
400 J/kg
200 J/kg
70 dBZ
65 dBZ
60 dBZ
55 dBZ
50 dBZ
45 dBZ
40 dBZ
35 dBZ
30 dBZ
25 dBZ
20 dBZ
15 dBZ
10 dBZ
5 dBZ
-1 K
-2 K
-3 K
-4 K
-5 K
-6 K
-7 K
-8 K
-9 K
950 m²/s²
900 m²/s²
850 m²/s²
800 m²/s²
750 m²/s²
700 m²/s²
650 m²/s²
600 m²/s²
550 m²/s²
500 m²/s²
450 m²/s²
400 m²/s²
350 m²/s²
300 m²/s²
250 m²/s²
200 m²/s²
150 m²/s²
100 m²/s²
46 m/s
44 m/s
42 m/s
40 m/s
38 m/s
36 m/s
34 m/s
32 m/s
30 m/s
28 m/s
26 m/s
24 m/s
22 m/s
20 m/s
16 m/s
12 m/s
8 m/s
4 m/s
30 m/s
28 m/s
26 m/s
24 m/s
22 m/s
20 m/s
18 m/s
16 m/s
14 m/s
12 m/s
10 m/s
8 m/s
6 m/s
4 m/s
2 m/s
3.0
2.8
2.6
2.4
2.2
2.0
1.8
1.6
1.4
1.2
1.0
0.8
0.6
0.4
0.2
15
14
13
12
11
10
9
8
7
6
5
4
3
2
1
90%
80%
70%
60%
50%
40%
30%
20%
10%
42
40
38
36
34
32
30
28
26
24
22
20
18
16
14
12
90+ cm
80-90 cm
70-80 cm
60-70 cm
50-60 cm
40-50 cm
30-40 cm
20-30 cm
10-20 cm
1-10 cm
Sneeuwval
Natte sneeuw
Regen
>120 mm
115 mm
110 mm
105 mm
100 mm
95 mm
90 mm
85 mm
80 mm
75 mm
70 mm
65 mm
60 mm
55 mm
50 mm
45 mm
45 mm
40 mm
35 mm
30 mm
25 mm
20 mm
15 mm
10 mm
5 mm
0.1 mm
960 hPa
880 hPa